TimeCDT,TemperatureF,Dew PointF,Humidity,Sea Level PressureIn,VisibilityMPH,Wind Direction,Wind SpeedMPH,Gust SpeedMPH,PrecipitationIn,Events,Conditions,WindDirDegrees,DateUTC
12:13 AM,69.8,59.0,68,29.83,10.0,SE,9.2,-,N/A,,Clear,140,2013-09-27 05:13:00
12:34 AM,69.8,59.0,68,29.83,10.0,SSE,9.2,-,N/A,,Clear,150,2013-09-27 05:34:00
12:53 AM,69.8,57.2,64,29.84,10.0,SSE,11.5,16.1,N/A,,Clear,150,2013-09-27 05:53:00
1:13 AM,69.8,59.0,68,29.83,10.0,SSE,9.2,-,N/A,,Clear,150,2013-09-27 06:13:00
1:33 AM,69.8,59.0,68,29.83,10.0,SSE,10.4,-,N/A,,Clear,150,2013-09-27 06:33:00
1:54 AM,69.8,59.0,68,29.83,10.0,SE,9.2,-,N/A,,Clear,140,2013-09-27 06:54:00
2:14 AM,69.8,59.0,68,29.83,10.0,SE,10.4,-,N/A,,Clear,140,2013-09-27 07:14:00
2:33 AM,69.8,60.8,73,29.83,10.0,SE,9.2,-,N/A,,Clear,140,2013-09-27 07:33:00
2:53 AM,69.8,60.8,73,29.82,10.0,SE,10.4,-,N/A,,Clear,140,2013-09-27 07:53:00
3:13 AM,68.0,59.0,73,29.81,10.0,SE,10.4,-,N/A,,Clear,140,2013-09-27 08:13:00
3:34 AM,68.0,59.0,73,29.81,10.0,SE,10.4,-,N/A,,Clear,140,2013-09-27 08:34:00
3:53 AM,68.0,59.0,73,29.80,10.0,SE,10.4,-,N/A,,Clear,140,2013-09-27 08:53:00
4:13 AM,68.0,59.0,73,29.80,10.0,SSE,9.2,-,N/A,,Clear,150,2013-09-27 09:13:00
4:34 AM,68.0,59.0,73,29.79,10.0,SSE,11.5,-,N/A,,Clear,150,2013-09-27 09:34:00
4:53 AM,68.0,59.0,73,29.79,10.0,SE,11.5,18.4,N/A,,Clear,140,2013-09-27 09:53:00
5:13 AM,69.8,60.8,73,29.80,10.0,SSE,11.5,-,N/A,,Clear,150,2013-09-27 10:13:00
5:33 AM,69.8,60.8,73,29.81,10.0,SSE,10.4,19.6,N/A,,Scattered Clouds,160,2013-09-27 10:33:00
5:53 AM,69.8,60.8,73,29.82,10.0,SSE,11.5,16.1,N/A,,Scattered Clouds,160,2013-09-27 10:53:00
6:14 AM,69.8,60.8,73,29.83,10.0,SSE,9.2,-,N/A,,Mostly Cloudy,160,2013-09-27 11:14:00
6:33 AM,68.0,60.8,78,29.83,7.0,SSE,10.4,17.3,0.01,Rain,Light Rain,150,2013-09-27 11:33:00
6:54 AM,64.4,60.8,88,29.82,10.0,SE,10.4,-,0.02,Rain,Light Rain,140,2013-09-27 11:54:00
7:13 AM,64.4,60.8,88,29.81,10.0,SE,10.4,-,N/A,,Mostly Cloudy,130,2013-09-27 12:13:00
7:33 AM,68.0,62.6,83,29.82,10.0,SE,12.7,16.1,N/A,,Mostly Cloudy,140,2013-09-27 12:33:00
7:53 AM,68.0,62.6,83,29.82,10.0,SSE,16.1,19.6,N/A,,Mostly Cloudy,150,2013-09-27 12:53:00
8:14 AM,66.2,60.8,83,29.81,7.0,SSE,15.0,25.3,0.01,Rain,Light Rain,160,2013-09-27 13:14:00
8:33 AM,68.0,62.6,83,29.81,10.0,SSE,17.3,24.2,0.01,,Scattered Clouds,150,2013-09-27 13:33:00
8:54 AM,68.0,62.6,83,29.80,10.0,SSE,17.3,28.8,0.01,,Scattered Clouds,150,2013-09-27 13:54:00
9:14 AM,68.0,62.6,83,29.82,10.0,SSE,16.1,20.7,N/A,,Mostly Cloudy,160,2013-09-27 14:14:00
9:33 AM,68.0,60.8,78,29.82,7.0,SSE,16.1,21.9,N/A,,Overcast,150,2013-09-27 14:33:00
9:54 AM,68.0,62.6,83,29.80,10.0,SE,15.0,21.9,N/A,,Mostly Cloudy,140,2013-09-27 14:54:00
10:14 AM,69.8,64.4,83,29.81,10.0,SSE,19.6,25.3,N/A,Rain,Rain,150,2013-09-27 15:14:00
10:34 AM,68.0,62.6,83,29.80,10.0,SSE,18.4,25.3,0.01,,Mostly Cloudy,150,2013-09-27 15:34:00
10:53 AM,69.8,64.4,83,29.82,7.0,SSE,16.1,21.9,0.01,,Scattered Clouds,160,2013-09-27 15:53:00
11:14 AM,69.8,62.6,78,29.82,10.0,South,16.1,19.6,N/A,,Scattered Clouds,170,2013-09-27 16:14:00
11:34 AM,69.8,62.6,78,29.81,10.0,SSE,15.0,21.9,N/A,,Mostly Cloudy,160,2013-09-27 16:34:00
11:53 AM,69.8,62.6,78,29.79,10.0,SSE,18.4,-,N/A,Rain,Light Rain,150,2013-09-27 16:53:00
12:14 PM,73.4,64.4,73,29.79,10.0,SSE,19.6,26.5,N/A,,Mostly Cloudy,150,2013-09-27 17:14:00
12:33 PM,73.4,62.6,69,29.77,10.0,SSE,15.0,26.5,N/A,,Scattered Clouds,150,2013-09-27 17:33:00
12:53 PM,73.4,62.6,69,29.77,10.0,SSE,16.1,27.6,N/A,,Scattered Clouds,160,2013-09-27 17:53:00
1:14 PM,77.0,62.6,61,29.76,10.0,SSE,19.6,25.3,N/A,,Clear,160,2013-09-27 18:14:00
1:34 PM,78.8,62.6,57,29.75,10.0,SSE,24.2,31.1,N/A,,Clear,160,2013-09-27 18:34:00
1:53 PM,78.8,62.6,57,29.74,10.0,SSE,18.4,24.2,N/A,,Clear,160,2013-09-27 18:53:00
2:13 PM,78.8,60.8,54,29.73,10.0,SSE,18.4,25.3,N/A,,Clear,160,2013-09-27 19:13:00
2:34 PM,78.8,60.8,54,29.73,10.0,SSE,15.0,25.3,N/A,,Clear,160,2013-09-27 19:34:00
2:53 PM,80.6,60.8,51,29.74,10.0,South,15.0,21.9,N/A,,Clear,180,2013-09-27 19:53:00
3:14 PM,80.6,60.8,51,29.74,10.0,South,12.7,20.7,N/A,,Clear,180,2013-09-27 20:14:00
3:34 PM,78.8,60.8,54,29.74,10.0,South,10.4,-,N/A,,Clear,170,2013-09-27 20:34:00
3:53 PM,80.6,60.8,51,29.75,10.0,South,13.8,18.4,N/A,,Clear,190,2013-09-27 20:53:00
4:13 PM,80.6,59.0,48,29.75,10.0,South,9.2,-,N/A,,Clear,180,2013-09-27 21:13:00
4:34 PM,80.6,59.0,48,29.74,10.0,South,10.4,16.1,N/A,,Clear,180,2013-09-27 21:34:00
4:54 PM,78.8,57.2,47,29.75,10.0,South,9.2,-,N/A,,Clear,170,2013-09-27 21:54:00
5:13 PM,78.8,59.0,51,29.76,10.0,South,6.9,-,N/A,,Clear,170,2013-09-27 22:13:00
5:33 PM,78.8,57.2,47,29.76,10.0,SSE,10.4,-,N/A,,Clear,160,2013-09-27 22:33:00
5:54 PM,78.8,57.2,47,29.75,10.0,SSE,10.4,-,N/A,,Clear,160,2013-09-27 22:54:00
6:13 PM,78.8,57.2,47,29.76,10.0,South,8.1,-,N/A,,Clear,170,2013-09-27 23:13:00
6:34 PM,78.8,59.0,51,29.76,10.0,SSE,10.4,-,N/A,,Clear,150,2013-09-27 23:34:00
6:53 PM,77.0,59.0,54,29.75,10.0,SSE,8.1,-,N/A,,Clear,150,2013-09-27 23:53:00
7:14 PM,77.0,59.0,54,29.75,10.0,SE,6.9,-,N/A,,Clear,140,2013-09-28 00:14:00
7:33 PM,73.4,59.0,61,29.75,10.0,SE,6.9,-,N/A,,Clear,140,2013-09-28 00:33:00
7:53 PM,73.4,60.8,65,29.75,10.0,SE,8.1,-,N/A,,Clear,140,2013-09-28 00:53:00
8:14 PM,73.4,60.8,65,29.75,10.0,SSE,8.1,-,N/A,,Clear,150,2013-09-28 01:14:00
8:33 PM,73.4,60.8,65,29.75,10.0,SE,9.2,-,N/A,,Clear,140,2013-09-28 01:33:00
8:53 PM,77.0,60.8,57,29.75,10.0,SSE,10.4,-,N/A,,Clear,150,2013-09-28 01:53:00
9:14 PM,73.4,59.0,61,29.75,10.0,SSE,11.5,-,N/A,,Clear,150,2013-09-28 02:14:00
9:33 PM,73.4,59.0,61,29.75,10.0,SSE,13.8,17.3,N/A,,Clear,150,2013-09-28 02:33:00
9:53 PM,73.4,59.0,61,29.76,10.0,SSE,13.8,-,N/A,,Scattered Clouds,160,2013-09-28 02:53:00
10:14 PM,73.4,59.0,61,29.75,10.0,SSE,13.8,20.7,N/A,,Scattered Clouds,150,2013-09-28 03:14:00
10:33 PM,73.4,59.0,61,29.75,10.0,SSE,13.8,24.2,N/A,,Clear,160,2013-09-28 03:33:00
10:53 PM,73.4,59.0,61,29.75,10.0,SSE,17.3,24.2,N/A,,Clear,160,2013-09-28 03:53:00
11:14 PM,73.4,59.0,61,29.74,10.0,SSE,17.3,25.3,N/A,,Clear,160,2013-09-28 04:14:00
11:34 PM,73.4,59.0,61,29.73,10.0,SSE,16.1,25.3,N/A,,Clear,160,2013-09-28 04:34:00
11:54 PM,73.4,59.0,61,29.73,10.0,SSE,15.0,20.7,N/A,,Clear,160,2013-09-28 04:54:00